Simultaneous Nadir Overpasses (SNOs) Predictions

Prediction of SNOs between GOES-17 and AQUA Satellite Orbit:

Table of predicted SNOs for the next 14.0 days since TLE Epoch: 5/22/2021
Index Date Time (GOES-17) GOES-17 Lat,Lon AQUA Lat,Lon Distance(km) Time Diff (sec)
1 05/22/2021 10:51:27 -0.00,-137.20 0.31,-138.63 162.95 80
2 05/24/2021 10:36:36 -0.01,-137.19 -0.36,-135.68 172.14 80
3 05/24/2021 23:00:40 0.00,-137.18 -0.76,-140.87 418.93 80
4 05/26/2021 22:48:28 0.01,-137.16 -0.14,-137.91 84.99 80
5 05/28/2021 22:36:16 0.01,-137.13 0.48,-134.95 248.25 80
6 05/29/2021 10:57:31 -0.01,-137.12 0.65,-140.10 338.47 80
7 05/31/2021 10:45:19 -0.01,-137.09 0.02,-137.14 6.06 80
8 06/02/2021 10:30:27 -0.01,-137.06 -0.60,-134.18 327.12 80
9 06/02/2021 22:51:51 0.00,-137.04 -0.49,-139.37 264.47 80
10 06/04/2021 22:42:19 0.00,-137.01 0.15,-136.41 68.13 80
